Home   Weather   Dundee   Past weeks
Flag for United Kingdom

Past Weather in Dundee, Scotland, United Kingdom — Yesterday and Last 2 Weeks

Now
54 °F

Scattered clouds.


Feels Like: 50 °F
Forecast: 49 / 43 °F
Wind: 13 mph from West

Location: Dundee / Riverside

Current Time: Apr 8, 2020 at 6:25:05 pm

Latest Report: Apr 8, 2020 at 5:50 pm


Visibility: N/A

Pressure: 30.18 "Hg

Humidity: 82%

Dew Point: 48 °F

Location of DundeeLocation

Past Weather in Dundee — Graph

°F

Dundee Temperature Yesterday

Maximum temperature yesterday: 55 °F (at 3:20 pm)
Minimum temperature yesterday: 46 °F (at 9:20 am)
Average temperature yesterday: 53 °F

High & Low Weather Summary for the Past Weeks

 TemperatureHumidityPressure
High59 °F (Apr 5, 4:20 pm)100% (Mar 26, 3:50 pm)30.95 "Hg (Mar 26, 3:50 pm)
Low41 °F (Apr 2, 8:50 pm)40% (Mar 29, 2:20 pm)29.56 "Hg (Apr 5, 8:20 pm)
Average49 °F70%30.20 "Hg
* Reported Mar 25 9:20 am — Apr 8 4:50 pm, Dundee. Weather by CustomWeather, © 2020

Note: Actual official high and low records may vary slightly from our data, if they occured in-between our weather recording intervals... More about our weather records

Dundee Weather History for the Previous 24 Hours

Scroll right to see more
 ConditionsComfort  
Time TempWeatherWind HumidityBarometerVisibility
4:50 pm
Wed, Apr 8
55 °FPassing clouds.15 mph77%30.15 "HgN/A
4:20 pm55 °FPassing clouds.17 mph72%30.15 "HgN/A
3:50 pm55 °FPassing clouds.16 mph72%30.15 "HgN/A
3:20 pm57 °FPassing clouds.17 mph67%30.15 "HgN/A
2:50 pm57 °FPassing clouds.17 mph67%30.15 "HgN/A
2:20 pm57 °FPassing clouds.14 mph67%30.15 "HgN/A
1:50 pm57 °FPassing clouds.13 mph67%30.15 "HgN/A
1:20 pm55 °FPassing clouds.18 mph67%30.18 "HgN/A
12:50 pm57 °FPassing clouds.20 mph67%30.18 "HgN/A
11:50 am57 °FPassing clouds.21 mph67%30.18 "HgN/A
11:20 am55 °FPassing clouds.22 mph72%30.18 "HgN/A
10:50 am55 °FPassing clouds.17 mph77%30.18 "HgN/A
10:20 am54 °FPassing clouds.18 mph77%30.18 "HgN/A
9:50 am52 °FPassing clouds.12 mph82%30.18 "HgN/A
8:20 pm
Tue, Apr 7
52 °FPassing clouds.10 mph72%30.24 "HgN/A
7:50 pm54 °FPassing clouds.22 mph67%30.21 "HgN/A
7:20 pm54 °FPassing clouds.18 mph67%30.21 "HgN/A
6:50 pm54 °FPassing clouds.18 mph63%30.21 "HgN/A
6:20 pm54 °FPassing clouds.15 mph67%30.21 "HgN/A
Weather by CustomWeather, © 2020

See weather overview

Advertising